Время (UTC), дата Ветер
(°,м/с) 
Видим.   Явления Облачность Т
(°С)
Тd
(°С)
f(%) Тe
(°С)
Pmin
(гПа)
dP
(гПа)
Po
(мм)
O2
(г/м3)
Тmin Tmax R s Состояние
почвы
00 01.09.13 220 (ЮЗ) 10 км    5/1 600 м средняя 
[Sc|Ac trans]
+16 +13.6 86 +22  1010  0.1  751  283           
03 01.09.13 270 (З) 10 км    9/3 600 м средняя, верхняя 
[Sc|Ac trans|Ci fib]
+16.3 +13.7 85 +23  1010.4  0.3  751  283  +15.1         
06 01.09.13 270 (З) 10 км    9/9 570 м 
[Sc]
+17.5 +14.1 80 +25  1011.2  0.6  752  282           
09 01.09.13 260 (З) 10 км    8/4 1080 м средняя, верхняя 
[Cu med, cong|Ac trans|Ci fib]
+21.8 +13.4 59 +28  1010.7  -0.2  752  278           
12 01.09.13 260 (З) 5{10}  10 км  в посл. час ливневой дождь  9/5 1200 м кучево-дожд., средняя 
[Cb calv|Ac trans]
+21.3 +14.3 64 +29  1011.2  0.5  752  278           
15 01.09.13 260 (З) 10 км  {ливн. осадки}  8/3 1000 м кучево-дожд., средняя 
[Cb calv|Ac trans]
+20.7 +13.7 64 +27  1012.2  0.9  753  279    +23.3  0.0     
18 01.09.13 280 (З) 10 км    6/0 средняя 
[Ac trans]
+19.9 +11.7 59 +24  1014.3  754  281           
21 01.09.13 260 (З) 10 км    1/0 средняя 
[Ac trans]
+16 +11.5 75 +20  1015.1  0.7  755  285           
00 02.09.13 290 (З) 10 км    ясно 
+16.8 +14.7 87 +26  1015.5  0.4  755  284           
03 02.09.13 тихо ()   4000 м  местами туман поземный  ясно 
+13.3 +12.9 97 +18  1016.2  0.5  755  288  +13.3         
06 02.09.13 210 (ЮЗ) 10 км    1/0 средняя 
[Ac trans]
+21 +14.8 68 +29  1016.4  0.4  756  280           
09 02.09.13 250 (З) 10 км    4/4 1000 м 
[Cu med, cong]
+25.7 +10.8 39 +28  1015.8  -0.5  755  276           
12 02.09.13 240 (ЮЗ) 10 км    8/4 1000 м кучево-дожд., средняя 
[Cb calv|Ac trans]
+25.3 +10.7 40 +27  1014.8  -0.9  755  276           
15 02.09.13 220 (ЮЗ) 10 км    8/0 средняя, верхняя 
[Ac trans|Ci fib]
+23.9 +13.2 51 +29  1014.3  -0.6  754  277    +26.9       
18 02.09.13 280 (З) 10 км    8/3 1000 м кучево-дожд., средняя, верхняя 
[Cb calv|Ac trans|Ci fib]
+21.3 +17.6 79 +35  1015.2  0.9  755  278           
21 02.09.13 220 (ЮЗ) 4000 м  дымка  6/0 средняя, верхняя 
[Ac trans|Ci fib]
+17.4 +15.4 88 +28  1014.5  -0.8  754  282           
00 03.09.13 230 (ЮЗ) 4000 м  дымка  8/5 420 м средняя 
[Sc|Ac trans]
+17.1 +15.1 88 +27  1013.5  -1  754  283           
06 03.09.13 210 (ЮЗ) 10 км    6/4 600 м кучево-дожд., средняя 
[Cb calv|Ac trans]
+20.8 +16.6 77 +32  1012.1  -0.4  753  278           
12 03.09.13 190 (Ю) 5{10}  10 км  {гроза, ливн. осадки}  6/3 1000 м кучево-дожд., средняя 
[Cb calv|Ac trans]
+23.2 +14.5 58 +31  1010  -1.1  751  276           
15 03.09.13 090 (В) 1{11}  10 км  в посл. час гроза{ливн. осадки}  9/4 1000 м кучево-дожд., средняя 
[Cb calv|Ac trans]
+18.4 +16.7 90 +32  1009.1  -0.9  750  280    +25.4  13     
18 03.09.13 180 (Ю) 3{11}  10 км  зарница{гроза, ливн. осадки}  9/5 1000 м кучево-дожд., средняя 
[Cb cap|Ac trans]
+17.8 +16.2 90 +29  1009.1  750  280           
21 03.09.13 200 (Ю) 10 км  слаб. ливневой дождь{гроза}  9/5 1000 м кучево-дожд., средняя 
[Cb cap|Ac trans]
+16.9 +14.7 87 +25  1009  -0.2  750  282           
00 04.09.13 190 (Ю) 10 км  слаб. ливневой дождь  10/5 900 м кучево-дожд., средняя 
[Cb calv|Ac und]
+15.9 +14.9 94 +25  1007.6  -1.1  749  282           
03 04.09.13 220 (ЮЗ) 10 км  {ливн. осадки}  9/1 600 м кучево-дожд., средняя 
[Cb calv|Ac trans]
+15.2 +14.7 97 +24  1007  -0.8  749  283  +15.1       
06 04.09.13 220 (ЮЗ) 4000 м  слаб. ливневой дождь  10/6 180 м кучево-дожд., средняя 
[Cb calv|Ac und]
+16.7 +16 96 +27  1007.6  0.6  749  281           
09 04.09.13 210 (ЮЗ) 10 км  слаб. ливневой дождь  10/6 900 м кучево-дожд., средняя 
[Cb calv|Ac und]
+16.6 +15 90 +26  1007.5  749  281           
12 04.09.13 210 (ЮЗ) 10 км  слаб. ливневой дождь  10/5 900 м кучево-дожд., средняя 
[Cb calv|Ac und]
+16.8 +15.2 90 +27  1006.8  -0.6  749  281           
15 04.09.13 220 (ЮЗ) 10 км  {ливн. осадки}  9/5 900 м кучево-дожд., средняя 
[Cb calv|Ac trans]
+16.5 +14.5 88 +24  1007  0.1  749  281    +17.4     
18 04.09.13 210 (ЮЗ) 10 км  {ливн. осадки}  8/1 1000 м кучево-дожд., средняя 
[Cb calv|Ac trans]
+14.3 +13 92 +19  1007  -0.1  749  284           
21 04.09.13 230 (ЮЗ) 10 км    9/3 1000 м кучево-дожд., средняя 
[Cb calv|Ac trans]
+14.1 +12.5 90 +19  1006.6  -0.3  748  284           
00 05.09.13 240 (ЮЗ) 10 км    4/0 средняя 
[Ac trans]
+11.9 +11.4 97 +15  1005.8  -0.9  748  287           
03 05.09.13 220 (ЮЗ) 10 км    9/3 1000 м кучево-дожд., средняя 
[Cb calv|Ac trans]
+11.9 +11.5 97 +15  1005.6  -0.1  748  286  +11.1         
06 05.09.13 210 (ЮЗ) 10 км  {ливн. осадки}  9/4 1000 м кучево-дожд., средняя 
[Cb calv|Ac trans]
+14.6 +13.1 91 +21  1005.1  -0.3  747  283           
09 05.09.13 250 (З) 10 км  в посл. час гроза{ливн. осадки}  9/6 700 м кучево-дожд., средняя 
[Cb cap|Ac trans]
+17.5 +11.7 69 +22  1004.5  -0.5  747  281           
12 05.09.13 280 (З) 3{12}  10 км  слаб. ливневой дождь{гроза}  9/6 900 м кучево-дожд., средняя 
[Cb calv|Ac trans]
+15.3 +12.4 83 +21  1005.2  0.5  747  283           
15 05.09.13 260 (З) 10 км  {ливн. осадки}  6/4 600 м кучево-дожд., средняя 
[Cb calv|Ac trans]
+16.4 +9.1 62 +16  1005.7  0.5  748  283    +18.3     
18 05.09.13 260 (З) 3{10}  10 км  {ливн. осадки}  5/3 600 м кучево-дожд., средняя 
[Cb calv|Ac trans]
+14.3 +10.6 78 +16  1007  1.3  749  285           
21 05.09.13 260 (З) 10 км    4/0 средняя 
[Ac trans]
+13 +10.8 86 +15  1007.5  0.3  749  286           
00 06.09.13 260 (З) 10 км    8/3 1000 м кучево-дожд., средняя 
[Cb calv|Ac trans]
+12.6 +10.4 86 +14  1007.5  749  287           
03 06.09.13 260 (З) 10 км    9/5 1000 м кучево-дожд., средняя 
[Cb calv|Ac trans]
+12.1 +10 87 +13  1007.9  0.3  749  287  +12         
09 06.09.13 230 (ЮЗ) 10 км  слаб. ливневой дождь  9/5 900 м кучево-дожд., средняя 
[Cb calv|Ac trans]
+13.5 +11.4 87 +16  1009.7  1.3  751  286           
12 06.09.13 230 (ЮЗ) 8-11{11}  10 км  {ливн. осадки}  9/4 600 м кучево-дожд., средняя 
[Cb calv|Ac trans]
+16.1 +9.6 65 +16  1009.9  0.2  751  284           
15 06.09.13 220 (ЮЗ) 7-11{14}  10 км    9/5 1080 м кучево-дожд., средняя 
[Cb calv|Ac trans]
+15.5 +9.8 69 +16  1010.6  0.6  751  285    +17  0.3     
18 06.09.13 300 (СЗ) 1{13}  10 км  в посл. час ливневой дождь  8/4 600 м кучево-дожд., средняя 
[Cb calv|Ac trans]
+12.7 +11.2 91 +17  1012.5  1.7  753  288           
21 06.09.13 130 (ЮВ) 10 км  {ливн. осадки}  8/5 900 м кучево-дожд., средняя 
[Cb calv|Ac trans]
+11.6 +11 96 +14  1011.9  -0.5  752  289           
00 07.09.13 140 (ЮВ) 10 км  слаб. ливневой дождь  10/5 800 м кучево-дожд., средняя 
[Cb calv|Ac und]
+12 +11.2 95 +15  1010.5  -1.3  751  288           
03 07.09.13 270 (З) 4000 м  слаб. ливневой дождь  10/8 210 м кучево-дожд., средняя 
[Cb calv|Ac und]
+11.8 +11 95 +14  1011  0.5  752  288  +10.7       
06 07.09.13 170 (Ю) 4000 м  слаб. ливневой дождь  10/6 100 м кучево-дожд., средняя 
[Cb calv|Ac und]
+12.8 +12.4 97 +16  1010.7  -0.3  751  287           
09 07.09.13 240 (ЮЗ) 10 км  в посл. час ливневой дождь  9/6 330 м кучево-дожд., средняя 
[Cb calv|Ac trans]
+12.8 +10.5 86 +14  1012.4  1.6  753  288           
12 07.09.13 250 (З) 10 км  {ливн. осадки}  9/6 700 м средняя 
[Sc|Ac trans]
+14.9 +8.9 67 +14  1012.9  0.6  753  286           
15 07.09.13 260 (З) 10 км    9/4 600 м средняя 
[Sc|Ac trans]
+14.6 +8.4 66 +15  1013.9  754  287    +15.4     
18 07.09.13 260 (З) 10 км    8/0 средняя 
[Ac trans]
+13.3 +9.1 76 +13  1015.5  1.5  755  288           
21 07.09.13 230 (ЮЗ) 10 км    6/0 средняя 
[Ac trans]
+12 +10.6 91 +14  1015.6  0.2  755  289           
00 08.09.13 250 (З) 10 км    9/1 600 м кучево-дожд., средняя 
[Cb calv|Ac trans]
+12.5 +11.3 92 +16  1015.6  755  289           
03 08.09.13 210 (ЮЗ) 10 км    9/0 средняя 
[Ac trans]
+12.5 +11.5 94 +15  1015  -0.6  755  289  +10.6         
06 08.09.13 220 (ЮЗ) 10 км    9/3 1000 м кучево-дожд., средняя 
[Cb calv|Ac trans]
+15 +12.2 83 +19  1015.5  0.6  755  286           
09 08.09.13 210 (ЮЗ) 10 км  в посл. час ливневой дождь  9/4 1000 м кучево-дожд., средняя 
[Cb calv|Ac trans]
+16.4 +12.8 79 +21  1015.3  -0.1  755  284           
12 08.09.13 220 (ЮЗ) 10 км  {ливн. осадки}  9/5 900 м кучево-дожд., средняя 
[Cb calv|Ac trans]
+17.8 +12.2 70 +22  1014.6  -0.3  754  283           
15 08.09.13 290 (З) 10 км    8/5 1000 м кучево-дожд., средняя 
[Cb calv|Ac trans]
+16.4 +11.4 72 +20  1015.1  0.4  755  285    +18.7  0.0     
18 08.09.13 290 (З) 10 км    9/3 1000 м кучево-дожд., средняя 
[Cb calv|Ac trans]
+15.6 +12.5 82 +21  1016.2  0.9  755  286           
21 08.09.13 310 (СЗ) 10 км    5/0 средняя 
[Ac trans]
+12.8 +10.2 84 +14  1016  -0.2  755  289           
00 09.09.13 280 (З) 10 км    5/0 средняя 
[Ac trans]
+11.8 +10.1 89 +13  1015.6  -0.3  755  290           
03 09.09.13 270 (З) 10 км    9/0 средняя 
[Ac trans]
+12.3 +11 92 +15  1015.4  -0.2  755  289  +11.2         
06 09.09.13 280 (З) 4000 м  дымка{ливн. осадки}  9/5 1000 м кучево-дожд., средняя 
[Cb calv|Ac trans]
+13.8 +12.2 90 +18  1015.9  0.6  755  287           
09 09.09.13 260 (З) 10 км  {ливн. осадки}  9/6 930 м кучево-дожд., средняя 
[Cb calv|Ac trans]
+16.7 +12 74 +21  1015.4  -0.3  755  284           
12 09.09.13 270 (З) 10 км  в посл. час ливневой дождь  9/5 900 м кучево-дожд., средняя 
[Cb calv|Ac trans]
+16.9 +11.2 69 +20  1015.6  0.2  755  284           
15 09.09.13 270 (З) 10 км    9/4 600 м средняя 
[Sc|Ac trans]
+17.2 +10.1 63 +19  1016.5  0.8  756  285    +17.6  0.0     
18 09.09.13 300 (СЗ) 10 км    9/4 600 м средняя 
[Sc|Ac trans]
+16 +10.2 68 +18  1018  1.3  757  286           
21 09.09.13 270 (З) 10 км    ясно 
+13.1 +9.8 80 +15  1018.2  757  289           
00 10.09.13 270 (З) 10 км    5/0 средняя, верхняя 
[Ac trans|Ci fib]
+13.1 +10.5 84 +16  1018.1  -0.1  757  289           
03 10.09.13 310 (СЗ) 4000 м  дымка  5/0 средняя, верхняя 
[Ac trans|Ci fib]
+11.9 +10.7 92 +14  1018.5  0.3  757  290  +10.6         
06 10.09.13 280 (З) 4000 м  дымка  9/0 средняя 
[Ac trans]
+15.2 +11.5 79 +19  1019  0.6  758  287           
09 10.09.13 250 (З) 10 км    5/3 1000 м средняя 
[Cu med, cong|Ac trans]
+18.7 +11.1 61 +21  1018.4  -0.4  757  284           
12 10.09.13 250 (З) 10 км    8/3 1000 м кучево-дожд., средняя 
[Cb calv|Ac trans]
+20.2 +11.3 57 +23  1017.8  -0.5  757  282           
18 10.09.13 270 (З) 10 км    9/3 300 м средняя 
[Sc|Ac trans]
+16.9 +13.1 78 +23  1018  0.3  757  285           
21 10.09.13 290 (З) 10 км    4/0 средняя 
[Ac trans]
+15.9 +12.6 81 +22  1018  757  286           
00 11.09.13 340 (С) 10 км    4/0 средняя 
[Ac trans]
+14.2 +11.1 82 +16  1017.8  -0.2  757  288           
03 11.09.13 320 (СЗ) 10 км    8/0 средняя, верхняя 
[Ac trans|Ci fib]
+12.7 +9.8 82 +14  1018.3  0.3  757  290  +12.4         
06 11.09.13 330 (СЗ) 10 км    8/0 средняя, верхняя 
[Ac trans|Ci fib]
+18 +10.9 63 +21  1019  0.8  758  284  +12.3         
09 11.09.13 320 (СЗ) 10 км    6/4 1000 м верхняя 
[Cu med, cong|Ci fib]
+20.4 +10.5 53 +22  1018.8  758  282           
12 11.09.13 320 (СЗ) 10 км    5/5 1080 м кучево-дожд. 
[Cb calv]
+21 +8.8 46 +21  1018.4  -0.3  757  282           
15 11.09.13 010 (С) 10 км    4/1 1000 м средняя 
[Cu hum|Ac trans]
+20.5 +8.3 45 +21  1018.6  0.1  757  282    +22.7       
18 11.09.13 030 (СВ) 10 км    3/0 средняя 
[Ac trans]
+15.9 +9.2 64 +17  1020.2  1.4  758  287           
21 11.09.13 080 (В) 10 км    ясно 
+12.9 +10.6 86 +14  1020.6  0.3  759  290           
00 12.09.13 060 (СВ) 10 км    3/0 средняя 
[Ac trans]
+10.3 +9.4 94 +10  1020.6  -0.1  759  293           
03 12.09.13 050 (СВ) 10 км    4/0 средняя, верхняя 
[Ac trans|Ci fib]
+10.2 +9.2 93 +10  1021  0.3  759  293  +9         
06 12.09.13 110 (В) 10 км    5/0 средняя, верхняя 
[Ac trans|Ci fib]
+15.4 +11.8 79 +19  1021.3  0.5  759  287           
09 12.09.13 060 (СВ) 10 км    8/4 1000 м верхняя 
[Cu med, cong|Ci fib]
+19.5 +11.1 58 +22  1020.7  -0.3  759  283           
12 12.09.13 080 (В) 10 км    6/6 1200 м 
[Cu med, cong]
+20.9 +10.4 51 +22  1019.8  -0.8  758  282           
15 12.09.13 100 (В) 10 км    5/0 средняя 
[Ac trans]
+18.8 +10.9 60 +21  1020  758  284    +21.5       
18 12.09.13 090 (В) 10 км    ясно 
+14.2 +10.1 76 +15  1021.1  0.9  759  289           
21 12.09.13 080 (В) 10 км    ясно 
+12.8 +10.8 88 +14  1021.4  0.2  759  290           
00 13.09.13 080 (В) 10 км    ясно 
+11.3 +10 92 +12  1021  -0.5  759  292           
03 13.09.13 080 (В) 10 км    6/0 верхняя 
[Ci fib]
+10.4 +9.9 97 +11  1021.1  0.1  759  293  +9.8         
06 13.09.13 090 (В) 10 км    3/1 300 м средняя 
[Sc|Ac trans]
+14.5 +12.1 86 +18  1021  759  288           
09 13.09.13 100 (В) 7-10{11}  10 км    4/1 600 м верхняя 
[Sc|Ci fib]
+20.1 +11.9 59 +24  1019.7  -1.3  758  282           
18 13.09.13 080 (В) 5{11}  10 км    6/0 средняя 
[Ac trans]
+16.9 +12.3 74 +21  1018.1  0.1  757  285           
21 13.09.13 080 (В) 10 км    5/0 средняя 
[Ac trans]
+15.4 +11.2 76 +18  1017.4  -0.6  756  286           
00 14.09.13 090 (В) 10 км    5/0 средняя 
[Ac trans]
+14.5 +11 80 +16  1016.4  -0.9  756  287           
03 14.09.13 080 (В) 7-10{10}  10 км    8/0 средняя 
[Ac trans]
+13.5 +10.7 83 +14  1015.4  -0.9  755  288  +13.3         
06 14.09.13 100 (В) 8-11{11}  10 км    3/0 средняя 
[Ac trans]
+17.5 +13 75 +22  1014.2  -0.8  754  283  +13.2         
09 14.09.13 110 (В) 9-12{13}  10 км    6/0 средняя, верхняя 
[Ac trans|Ci fib]
+24.2 +13.5 51 +30  1012.1  -2  753  276           
12 14.09.13 130 (ЮВ) 7-10{14}  10 км    8/0 средняя, верхняя 
[Ac trans|Ci fib]
+24.7 +13.5 50 +31  1010.4  -1.6  751  275           
15 14.09.13 250 (З) 3{10}  10 км  слаб. ливневой дождь  10/4 600 м кучево-дожд., средняя 
[Cb calv|Ac trans]
+21.6 +15.5 68 +31  1010.7  0.1  752  277    +25.8  0.0     
18 14.09.13 110 (В) 5{10}  10 км  в посл. час ливневой дождь  8/3 1000 м кучево-дожд., средняя 
[Cb calv|Ac trans]
+18.6 +15.4 82 +28  1009.3  -1.5  750  280           
21 14.09.13 140 (ЮВ) 4000 м  слаб. ливневой дождь  9/5 1000 м кучево-дожд., средняя 
[Cb calv|Ac trans]
+17.6 +15.7 89 +28  1010.2  0.9  751  281           
00 15.09.13 210 (ЮЗ) 1{13}  4000 м  дымка{ливн. осадки}  10/10 420 м 
[Sc]
+17 +16.3 96 +29  1008.6  -1.7  750  281           
03 15.09.13 250 (З) 10 км    8/8 540 м кучево-дожд. 
[Cb calv]
+15.8 +14.3 91 +24  1009.6  0.9  751  283  +15.7       
06 15.09.13 250 (З) 10 км    6/4 600 м средняя 
[Sc|Ac trans]
+16.9 +12.9 77 +22  1010.4  0.8  751  283  +15.3         
09 15.09.13 220 (ЮЗ) 10 км    4/3 1000 м средняя 
[Cu hum|Ac trans]
+20.2 +10.3 53 +22  1009.9  -0.4  751  280           
12 15.09.13 190 (Ю) 10 км    9/5 1000 м средняя 
[Cu med, cong|Ac trans]
+21.9 +11 50 +24  1007.7  -2  749  278           
15 15.09.13 160 (Ю) 10 км    9/3 1000 м кучево-дожд., средняя 
[Cb calv|Ac trans]
+20.6 +11.3 55 +24  1006.2  -1.5  748  278    +22       
18 15.09.13 170 (Ю) 10 км  {гроза, ливн. осадки}  9/4 1000 м кучево-дожд., средняя 
[Cb calv|Ac trans]
+15 +12.3 84 +20  1006.6  0.1  748  283           
21 15.09.13 170 (Ю) 10 км  в посл. час ливневой дождь  9/4 1000 м кучево-дожд., средняя 
[Cb calv|Ac trans]
+13.5 +12.2 92 +18  1005.1  -1.3  747  285           
00 16.09.13 170 (Ю) 4000 м  слаб. ливневой дождь  10/8 1000 м кучево-дожд., средняя 
[Cb calv|Ac und]
+12.9 +12.3 96 +16  1003.7  -1.4  746  285           
03 16.09.13 200 (Ю) 10 км  слаб. ливневой дождь  10/8 180 м кучево-дожд., средняя 
[Cb calv|Ac und]
+13.8 +13.4 97 +19  1002.4  -1.3  745  283  +12.8       
06 16.09.13 260 (З) 5{10}  10 км  в посл. час ливневой дождь  9/6 240 м кучево-дожд., средняя 
[Cb calv|Ac trans]
+14.8 +13.2 90 +20  1003.7  1.2  746  283           
09 16.09.13 250 (З) 8-12{12}  10 км    9/8 1000 м кучево-дожд., средняя 
[Cb calv|Ac trans]
+17 +11.5 70 +19  1006.1  2.5  748  282           
12 16.09.13 250 (З) 7-11{12}  10 км    8/6 1000 м кучево-дожд., средняя 
[Cb calv|Ac trans]
+18.5 +11.6 64 +21  1007.3  1.2  749  280           
15 16.09.13 260 (З) 10 км    4/1 1000 м средняя 
[Cu med, cong|Ac trans]
+17.2 +11.2 68 +20  1008.4  0.9  750  282    +18.9     
18 16.09.13 250 (З) 10 км    3/0 средняя 
[Ac trans]
+14.9 +12.6 86 +21  1009.4  750  284           
21 16.09.13 тихо ()   4000 м  дымка  3/0 средняя 
[Ac trans]
+12.1 +11.4 96 +15  1009.7  0.1  751  287           
00 17.09.13 тихо ()   4000 м  дымка  ясно 
+11.8 +11.3 97 +15  1009  -0.6  750  288           
09 17.09.13 090 (В) 10 км  {туман}  8/4 600 м верхняя 
[Cu hum|Ci fib]
+20 +14.2 69 +27  1008.9  -0.4  750  279           
18 17.09.13 090 (В) 10 км  зарница  8/4 1000 м кучево-дожд., средняя 
[Cb calv|Ac trans]
+16.6 +15.4 93 +25  1007.6  0.5  749  281           
00 18.09.13 080 (В) 10 км  зарница{ливн. осадки}  8/5 200 м кучево-дожд., средняя 
[Cb calv|Ac trans]
+14.8 +14 95 +21  1005.4  -1.5  747  283           
06 18.09.13 080 (В) 10 км    9/6 210 м средняя 
[Sc|Ac trans]
+17.2 +15.8 91 +27  1005.1  747  280           
09 18.09.13 090 (В) 10 км    5/3 300 м средняя 
[Sc|Ac trans]
+21.2 +16.7 75 +33  1004.3  -0.7  747  276           
12 18.09.13 090 (В) 10 км    8/3 600 м средняя 
[Cu med, cong|Ac trans]
+23 +17.3 70 +36  1003.1  -1.1  746  273           
18 18.09.13 110 (В) 10 км    9/1 1000 м кучево-дожд., средняя 
[Cb calv|Ac trans]
+17.1 +15.6 91 +28  1004.1  0.5  747  280           
21 18.09.13 090 (В) 10 км    9/1 1000 м кучево-дожд., средняя 
[Cb calv|Ac trans]
+16.5 +15.4 93 +26  1004.2  0.1  747  280           
03 19.09.13 120 (ЮВ) 3000 м  дымка{гроза, ливн. осадки}  10/10 100 м 
[Sc]
+15.9 +15.3 96 +25  1004.1  0.2  747  281  +15.7       
15 19.09.13 270 (З) 2{10}  10 км  слаб. ливневой дождь  9/3 1000 м кучево-дожд., средняя, верхняя 
[Cb calv|Ac trans|Ci fib]
+17.1 +13.3 78 +24  1006.4  1.2  748  281    +20.4     
21 19.09.13 тихо ()   10 км    9/6 800 м кучево-дожд., средняя 
[Cb calv|Ac trans]
+15.2 +12.9 86 +20  1008.1  0.4  749  284           
00 20.09.13 140 (ЮВ) 4000 м  дымка  8/0 средняя 
[Ac trans]
+13.5 +12.7 95 +19  1008.3  750  285           
03 20.09.13 160 (Ю) 10 км    9/6 450 м средняя 
[Sc|Ac trans]
+13.7 +13.1 96 +21  1008.7  0.4  750  285  +12.7    0.0     
06 20.09.13 200 (Ю) 10 км    9/6 540 м средняя 
[Sc|Ac trans]
+16.1 +14.6 91 +24  1009.1  0.4  750  282           
09 20.09.13 200 (Ю) 10 км    8/5 1000 м кучево-дожд., средняя 
[Cb calv|Ac trans]
+19.4 +13.6 69 +26  1008.8  -0.2  750  279           
12 20.09.13 200 (Ю) 10 км  {ливн. осадки}  9/5 1000 м кучево-дожд., средняя 
[Cb calv|Ac trans]
+20.3 +13.9 67 +27  1008  -0.7  750  278           
15 20.09.13 230 (ЮЗ) 10 км  слаб. ливневой дождь  9/6 1000 м кучево-дожд., средняя 
[Cb calv|Ac trans]
+15.9 +14.6 92 +24  1008.9  0.7  750  283    +20.9     
18 20.09.13 230 (ЮЗ) 10 км  {ливн. осадки}  5/0 средняя 
[Ac trans]
+14.9 +14 94 +22  1009.9  0.9  751  284           
21 20.09.13 230 (ЮЗ) 10 км    4/0 средняя 
[Ac trans]
+13.2 +12.4 95 +17  1010.5  0.5  751  286           
00 21.09.13 230 (ЮЗ) 10 км    4/1 300 м средняя 
[Sc|Ac trans]
+12.4 +11.6 95 +15  1011  0.4  752  287           
03 21.09.13 240 (ЮЗ) 4000 м  дымка  3/0 средняя 
[Ac trans]
+10.2 +9.6 96 +11  1011.5  0.4  752  290  +9.9         
06 21.09.13 200 (Ю) 10 км    8/5 750 м кучево-дожд., средняя 
[Cb calv|Ac trans]
+13.8 +11.8 88 +17  1011.6  0.2  752  286           
09 21.09.13 250 (З) 10 км  в посл. час ливневой дождь  9/6 720 м кучево-дожд., средняя, верхняя 
[Cb calv|Ac trans|Ci fib]
+16 +12.8 81 +21  1011.5  752  284           
12 21.09.13 250 (З) 8-12{12}  10 км  {ливн. осадки}  9/6 870 м кучево-дожд., средняя, верхняя 
[Cb calv|Ac trans|Ci fib]
+16.9 +11.3 70 +19  1012  0.3  752  283           
15 21.09.13 250 (З) 5{12}  10 км    9/6 720 м кучево-дожд., средняя 
[Cb calv|Ac trans]
+15.1 +11.4 79 +18  1012.6  0.6  753  285    +18.1  0.0     
21 21.09.13 250 (З) 10 км    8/5 300 м кучево-дожд., средняя 
[Cb calv|Ac trans]
+13.4 +11.8 90 +17  1012.1  -0.4  752  287           
00 22.09.13 210 (ЮЗ) 4000 м  дымка{ливн. осадки}  9/6 800 м кучево-дожд., средняя 
[Cb calv|Ac trans]
+12.1 +11.5 96 +15  1011.9  -0.2  752  288           
03 22.09.13 280 (З) 10 км  слаб. ливневой дождь  8/6 900 м кучево-дожд., средняя 
[Cb calv|Ac trans]
+12.1 +10.9 92 +14  1011.8  -0.1  752  288  +11.6       
06 22.09.13 230 (ЮЗ) 10 км  {ливн. осадки}  4/1 1000 м средняя 
[Cu med, cong|Ac trans]
+15.2 +12.6 84 +20  1011.6  752  285           
09 22.09.13 250 (З) 7-10{10}  10 км    8/6 1000 м кучево-дожд., средняя 
[Cb calv|Ac trans]
+17.6 +9.7 60 +18  1011  -0.6  752  283           
12 22.09.13 260 (З) 7-10{11}  10 км    5/4 1000 м кучево-дожд., средняя 
[Cb calv|Ac trans]
+18.2 +9.6 57 +19  1010.7  -0.1  752  282           
15 22.09.13 260 (З) 5{10}  10 км    6/4 1000 м кучево-дожд., средняя 
[Cb calv|Ac trans]
+16.2 +9.6 65 +17  1010.9  0.1  752  284    +19.2       
18 22.09.13 270 (З) 2{10}  10 км    6/3 1000 м кучево-дожд., средняя 
[Cb calv|Ac trans]
+13.1 +10.6 85 +16  1011  752  287           
21 22.09.13 240 (ЮЗ) 10 км    6/3 1000 м кучево-дожд., средняя 
[Cb calv|Ac trans]
+12.3 +10.9 91 +16  1009.9  -1.1  751  287           
00 23.09.13 250 (З) 3000 м  местами туман поземный  5/5 150 м 
[St]
+10.4 +10.1 98 +12  1009.3  -0.7  750  289           
03 23.09.13 280 (З) 4000 м  местами туман поземный  8/5 100 м средняя 
[St|Ac trans]
+10.6 +10.4 99 +13  1008.6  -0.6  750  289  +9.7         
06 23.09.13 240 (ЮЗ) 10 км    6/4 300 м средняя 
[Sc|Ac trans]
+13.8 +10.6 81 +15  1008  -0.4  749  285           
09 23.09.13 250 (З) 10 км    4/4 600 м 
[Cu hum]
+17.5 +10.3 63 +19  1006  -1.8  748  281           
12 23.09.13 250 (З) 9-12{13}  10 км    8/3 1000 м верхняя 
[Cu hum|Ci fib]
+17.8 +10 60 +18  1003.6  -2.4  746  280           
15 23.09.13 220 (ЮЗ) 7-10{13}  10 км  в посл. час ливневой дождь  9/5 1000 м кучево-дожд., средняя 
[Cb calv|Ac trans]
+14 +12.1 88 +17  1001.9  -1.8  745  283    +18.3     
18 23.09.13 260 (З) 10-13{13}  4000 м  слаб. ливневой дождь  9/6 300 м кучево-дожд., средняя 
[Cb calv|Ac trans]
+12.7 +11 89 +14  1000.5  -1.2  744  284           
21 23.09.13 220 (ЮЗ) 10-14{15}  4000 м  слаб. ливневой дождь  10/8 180 м кучево-дожд., средняя 
[Cb calv|Ac und]
+11.7 +11.3 97 +13  997.7  -2.8  742  284           
00 24.09.13 260 (З) 4{16}  10 км  слаб. ливневой дождь  10/6 270 м кучево-дожд., средняя 
[Cb calv|Ac As]
+11.4 +9.8 90 +12  997.3  -0.4  741  285           
03 24.09.13 270 (З) 10 км  {ливн. осадки}  10/5 300 м кучево-дожд., средняя 
[Cb calv|Ac As]
+10.9 +8.3 84 +10  997.1  -0.3  741  286  +10.9    15     
06 24.09.13 230 (ЮЗ) 10 км  {ливн. осадки}  8/3 1000 м кучево-дожд., средняя 
[Cb calv|Ac trans]
+12 +9.1 82 +11  996.7  -0.2  741  284           
09 24.09.13 250 (З) 7-10{10}  10 км    8/4 300 м кучево-дожд., средняя 
[Cb calv|Ac trans]
+14.4 +7.7 64 +13  996.3  741  282           
12 24.09.13 230 (ЮЗ) 10-15{15}  10 км    6/4 1000 м кучево-дожд., средняя 
[Cb calv|Ac trans]
+14.7 +7.7 63 +13  995.9  -0.7  740  282           
15 24.09.13 260 (З) 9-12{18}  10 км  {ливн. осадки}  8/3 1000 м кучево-дожд., средняя 
[Cb calv|Ac trans]
+14.1 +5.3 55 +13  997  741  283    +16.1  0.0     
18 24.09.13 260 (З) 8-12{18}  10 км  {ливн. осадки}  10/0 средняя 
[Ac und]
+13 +6.9 66 +12  998  742  284           
21 24.09.13 250 (З) 8-12{13}  10 км    9/1 1000 м кучево-дожд., средняя 
[Cb calv|Ac trans]
+12.3 +7.7 73 +11  998.4  0.3  742  285           
00 25.09.13 260 (З) 8-12{13}  10 км  слаб. ливневой дождь  9/4 1000 м кучево-дожд., средняя 
[Cb calv|Ac trans]
+11.6 +8.5 81 +10  999.2  0.7  743  286           
03 25.09.13 270 (З) 7-11{12}  10 км  {ливн. осадки}  9/3 1000 м кучево-дожд., средняя 
[Cb calv|Ac trans]
+11.4 +8.2 81 +10  1000.4  744  286  +11.4    0.0     
06 25.09.13 270 (З) 6-10{11}  10 км  слаб. ливневой дождь  9/8 500 м кучево-дожд., средняя 
[Cb calv|Ac trans]
+12.1 +8.7 80 +11  1002.3  1.9  745  286           
09 25.09.13 270 (З) 7-12{13}  10 км  {ливн. осадки}  9/6 870 м кучево-дожд., средняя, верхняя 
[Cb calv|Ac trans|Ci fib]
+14.8 +8.1 64 +14  1002.7  0.5  745  284           
12 25.09.13 290 (З) 5{15}  10 км  в посл. час крупа{ливн. осадки} [макс. диам. градин 5 мм]  9/8 240 м кучево-дожд., средняя 
[Cb calv|Ac trans]
+12.4 +8.8 79 +12  1003.9  746  286           
15 25.09.13 290 (З) 10 км  в посл. час ливневой дождь  9/6 840 м кучево-дожд., средняя 
[Cb calv|Ac trans]
+10.2 +6.5 78 +10  1005.4  1.4  747  289    +15.1     
18 25.09.13 270 (З) 3{10}  10 км  {ливн. осадки}  5/1 1000 м кучево-дожд., средняя 
[Cb calv|Ac trans]
+9.7 +7.1 84 +9  1009.4  3.9  750  291           
21 25.09.13 280 (З) 10 км    1/0 средняя 
[Ac trans]
+8.5 +6.5 87 +8  1011.7  2.2  752  293           
00 26.09.13 270 (З) 10 км    4/0 средняя 
[Ac trans]
+7.4 +6 91 +7  1012.8  753  294           
03 26.09.13 270 (З) 10 км    3/0 средняя 
[Ac trans]
+7.1 +5.6 90 +6  1014.2  1.4  754  295  +6.9         
06 26.09.13 270 (З) 10 км    1/0 средняя 
[Ac trans]
+9.8 +5.3 74 +9  1016.3  2.1  755  293  +6.5         
09 26.09.13 260 (З) 8-11{11}  10 км    8/5 800 м верхняя 
[Cu med, cong|Ci fib]
+13.7 +5.7 58 +12  1016.9  0.7  756  289           
12 26.09.13 250 (З) 6-10{11}  10 км    6/5 1000 м верхняя 
[Cu med, cong|Ci fib]
+14.5 +4.5 51 +14  1016.2  -0.5  755  288           
18 26.09.13 тихо () {11}  10 км    9/0 средняя 
[Ac trans]
+9.5 +6.9 84 +10  1014.6  -0.9  754  293           
21 26.09.13 130 (ЮВ) 10 км    9/0 средняя 
[Ac trans]
+10.6 +6.4 75 +11  1012.2  -2.2  752  291           
00 27.09.13 150 (ЮВ) 10 км  в посл. час ливневой дождь  10/4 600 м кучево-дожд., средняя 
[Cb calv|Ac und]
+10.2 +9.3 94 +10  1008.4  -3.6  750  289           
03 27.09.13 170 (Ю) 5{10}  10 км  {ливн. осадки}  10/8 1080 м кучево-дожд., средняя 
[Cb calv|Ac cuf]
+11.3 +9.9 91 +11  1005  -3.1  747  287  +7.7    0.3     
06 27.09.13 200 (Ю) 6{10}  10 км  слаб. ливневой дождь  9/6 1000 м кучево-дожд., средняя 
[Cb calv|Ac trans]
+13.7 +11.9 89 +17  1001.8  -3  745  283           
09 27.09.13 250 (З) 10-16{18}  10 км  в посл. час ливневой дождь  9/5 300 м кучево-дожд., средняя 
[Cb calv|Ac trans]
+16.3 +14.7 90 +23  1000.9  -0.8  744  280           
15 27.09.13 300 (СЗ) 8-12{15}  10 км    9/6 800 м средняя 
[Sc|Ac trans]
+9.4 +3.5 67 +7  1008.8  4.2  750  292    +17     
18 27.09.13 300 (СЗ) 3{15}  10 км    6/6 800 м 
[Sc]
+6.2 +1.8 73 +5  1012.7  3.6  753  296           
21 27.09.13 260 (З) 10 км    1/1 600 м 
[Sc]
+3 +1.5 90 +2  1014.6  1.7  754  300           
00 28.09.13 270 (З) 10 км    ясно 
+3.3 +2.8 97 +3  1015.2  0.6  754  300           
06 28.09.13 220 (ЮЗ) 10 км    6/0 средняя, верхняя 
[Ac trans|Ci fib]
+7.1 +4.4 83 +6  1016.1  0.7  755  296           
09 28.09.13 240 (ЮЗ) 10 км    9/5 600 м кучево-дожд., средняя 
[Cb calv|Ac trans]
+10.7 +4.6 66 +10  1015.6  -0.3  755  292           
12 28.09.13 210 (ЮЗ) 10 км    9/4 600 м средняя 
[Cu med, cong|Ac trans]
+10.8 +4.3 64 +10  1014.9  -0.6  754  292           
15 28.09.13 260 (З) 10 км    8/3 600 м кучево-дожд., средняя 
[Cb calv|Ac trans]
+10 +3.9 66 +10  1015.4  0.3  755  293    +11.4       
18 28.09.13 260 (З) 10 км    6/1 600 м кучево-дожд., средняя 
[Cb calv|Ac trans]
+5.9 +4.5 91 +7  1016.1  0.5  755  297           
21 28.09.13 270 (З) 10 км    5/0 средняя 
[Ac trans]
+6.9 +3.6 79 +7  1015.9  -0.2  755  296           
00 29.09.13 270 (З) 4000 м  дымка  3/0 средняя 
[Ac trans]
+5.4 +3.9 90 +5  1015.6  -0.1  755  298           
03 29.09.13 210 (ЮЗ) 10 км    9/1 1000 м кучево-дожд., средняя 
[Cb calv|Ac trans]
+5.7 +3.8 88 +5  1014.8  -0.7  754  297  +4.9         
06 29.09.13 230 (ЮЗ) 10 км  в посл. час ливневой дождь  9/4 1000 м кучево-дожд., средняя 
[Cb calv|Ac trans]
+7.2 +5.9 91 +6  1014.8  754  295           
09 29.09.13 260 (З) 5{11}  3000 м  слаб. ливневой дождь  10/8 360 м кучево-дожд., средняя 
[Cb calv|Ac und]
+8.9 +7.6 92 +7  1014.4  -0.2  754  293           
12 29.09.13 280 (З) 3{11}  10 км  {ливн. осадки}  9/4 800 м кучево-дожд. 
[Cb calv]
+9.8 +5.4 74 +9  1013.7  -0.6  754  292           
15 29.09.13 тихо ()   10 км  {ливн. осадки}  8/4 1000 м кучево-дожд., средняя 
[Cb calv|Ac trans]
+8.5 +5.4 81 +9  1014.5  0.7  754  294    +11.5     
18 29.09.13 300 (СЗ) 4000 м  дымка{ливн. осадки}  ясно 
+6.3 +5.3 93 +6  1016.1  1.4  755  297           
21 29.09.13 310 (СЗ) 4000 м  дымка  ясно 
+3.8 +3.6 99 +3  1016.6  0.4  755  300           
00 30.09.13 280 (З) 4000 м  местами туман поземный  ясно 
+2.5 +2.2 98 +2  1016.8  0.3  756  301           
06 30.09.13 290 (З) 4000 м  дымка{туман}  3/0 средняя 
[Ac trans]
+9.5 +5.1 74 +10  1017.1  0.3  756  294           
09 30.09.13 260 (З) 10 км    8/6 1000 м кучево-дожд., средняя 
[Cb calv|Ac trans]
+10.9 +3.2 59 +11  1016.7  -0.2  756  292           
12 30.09.13 300 (СЗ) 10 км  слаб. ливневой дождь  9/6 1000 м кучево-дожд., средняя 
[Cb calv|Ac trans]
+10.4 +4.5 67 +10  1016.8  0.1  756  293           
15 30.09.13 300 (СЗ) 10 км  {ливн. осадки}  6/0 средняя, верхняя 
[Ac trans|Ci fib]
+10.1 +4.2 67 +11  1016.7  -0.1  756  293    +12.3  0.0     
18 30.09.13 300 (СЗ) 4000 м  дымка{ливн. осадки}  6/0 средняя 
[Ac trans]
+7.8 +5.1 83 +8  1017.5  0.7  756  295           
21 30.09.13 280 (З) 4000 м  дымка  ясно 
+3.2 +2.2 93 +4  1017.8  0.1  756  301           
00 01.10.13 350 (С) 10 км    3/0 верхняя 
[Ci fib]
+3.7 +1.3 84 +3  1017.6  -0.1  756  300           
03 01.10.13 070 (В) 10 км    4/0 верхняя 
[Ci fib]
+1.5 +0.3 92 +2  1017.5  -0.1  756  303  +1.4         
06 01.10.13 090 (В) 10 км    8/0 верхняя 
[Ci]
+8 +3.7 74 +7  1016.7  -0.5  756  295           
09 01.10.13 090 (В) 10 км    9/0 средняя, верхняя 
[Ac trans|Ci fib]
+9.7 +5.4 75 +9  1016.1  -0.6  755  293           
12 01.10.13 080 (В) 10 км    9/1 1000 м средняя, верхняя 
[Cu hum|Ac trans|Ci fib]
+10.8 +4.3 64 +10  1014  -2  754  291           
15 01.10.13 070 (В) 10 км    10/1 1000 м кучево-дожд., средняя 
[Cb calv|Ac und]
+9.6 +4.3 70 +8  1013.3  -0.7  753  293    +11.6       
18 01.10.13 070 (В) 10 км  слаб. ливневой дождь  10/5 1000 м кучево-дожд., средняя 
[Cb calv|Ac und]
+8.8 +4.7 76 +7  1012.9  -0.3  753  293           
21 01.10.13 060 (СВ) 4000 м  в посл. час ливневой дождь  10/5 1000 м кучево-дожд., средняя 
[Cb calv|Ac und]
+7.3 +6.3 93 +6  1011.3  -1.7  752  294           
00 02.10.13 050 (СВ) 4000 м  слаб. ливневой дождь  10/8 210 м кучево-дожд., средняя 
[Cb calv|Ac und]
+7.4 +7.1 98 +6  1010.8  -0.5  751  294           
03 02.10.13 060 (СВ) 9-13{13}  4000 м  слаб. ливневой дождь  10/8 210 м кучево-дожд., средняя 
[Cb calv|Ac und]
+7.5 +7.1 97 +5  1008.1  -2.7  749  293  +7.2       
06 02.10.13 060 (СВ) 11-14{14}  4000 м  слаб. ливневой дождь  10/8 210 м кучево-дожд., средняя 
[Cb calv|Ac und]
+7.6 +7.2 97 +4  1008.2  0.6  749  293           
09 02.10.13 070 (В) 10-13{14}  2500 м  слаб. ливневой дождь  10/8 240 м кучево-дожд., средняя 
[Cb calv|Ac und]
+7.7 +7.2 97 +5  1007.9  -0.1  749  292           
12 02.10.13 060 (СВ) 12-15{18}  2000 м  слаб. ливневой дождь  10/9 270 м кучево-дожд., средняя 
[Cb calv|Ac trans]
+7.6 +7 96 +4  1007.9  -0.1  749  292           
15 02.10.13 060 (СВ) 12-15{16}  2500 м  слаб. ливневой дождь  10/9 270 м кучево-дожд., средняя 
[Cb calv|Ac und]
+7 +6.4 96 +3  1008.7  0.7  750  293    +7.8  26     
18 02.10.13 060 (СВ) 11-15{16}  3000 м  слаб. ливневой дождь  10/8 240 м кучево-дожд., средняя 
[Cb calv|Ac und]
+6.4 +5.8 96 +3  1009.7  750  295           
21 02.10.13 050 (СВ) 10-15{17}  3000 м  слаб. ливневой дождь  10/8 210 м кучево-дожд., средняя 
[Cb calv|Ac und]
+5.6 +5.1 97 +2  1009.2  -0.4  750  295           
00 03.10.13 060 (СВ) 10-13{17}  3000 м  слаб. ливневой дождь{туман}  10/8 210 м кучево-дожд., средняя 
[Cb calv|Ac und]
+5.9 +5.5 97 +2  1008.7  -0.4  750  295           
03 03.10.13 060 (СВ) 12-15{15}  1200 м  слаб. ливневой дождь  10/8 180 м кучево-дожд., средняя 
[Cb calv|Ac und]
+6.2 +5.9 98 +2  1008  -0.9  749  294  +5.5    10     
06 03.10.13 080 (В) 10-15{15}  1800 м  слаб. дождь{ливн. осадки}  10/10 120 м 
[Frnb|Ns]
+7 +6.8 99 +4  1008.5  0.5  750  293           
09 03.10.13 090 (В) 14-18{16}  2000 м  дождь{ливн. осадки}  10/10 120 м 
[Frnb|Ns]
+7.1 +6.8 98 +3  1009.3  0.5  750  293           
12 03.10.13 080 (В) 11-14{18}  1500 м  слаб. дождь{ливн. осадки}  10/10 150 м 
[Frnb|Ns]
+7 +6.8 99 +4  1011.1  1.7  752  294           
15 03.10.13 080 (В) 9-12{13}  2000 м  слаб. морось{дождь}  10/10 120 м 
[Frnb]
+6.5 +6.4 99 +3  1011.9  0.8  752  295    +7.2  13     
18 03.10.13 080 (В) 9-12{14}  3000 м  слаб. дождь{морось}  10/9 150 м средняя 
[Frnb|As op]
+6.4 +6.1 98 +3  1013.4  1.4  753  296           
21 03.10.13 080 (В) 8-12{13}  3000 м  слаб. ливневой дождь  10/8 120 м кучево-дожд., средняя 
[Cb calv|Ac und]
+5.8 +5.5 98 +3  1013.8  0.3  753  296           
00 04.10.13 080 (В) 7-12{12}  2500 м  слаб. ливневой дождь  10/9 120 м кучево-дожд., средняя 
[Cb calv|Ac und]
+5.4 +5.4 100 +3  1014.2  0.4  754  297           
03 04.10.13 090 (В) 7-10{12}  2500 м  слаб. ливневой дождь  10/9 150 м кучево-дожд., средняя 
[Cb calv|Ac und]
+5.1 +4.8 98 +2  1014.8  0.6  754  298  +5.1       
06 04.10.13 080 (В) 4{12}  4000 м  слаб. морось{ливн. осадки}  10/10 120 м 
[St]
+5.6 +5.2 97 +4  1015.3  0.5  755  297  +4.9         
09 04.10.13 080 (В) 4000 м  дымка{морось}  10/8 150 м средняя 
[St|Ac und]
+6.1 +5.5 96 +4  1016  0.7  755  297           
12 04.10.13 080 (В) 6-10{11}  4000 м  слаб. ливневой дождь  10/8 150 м кучево-дожд., средняя 
[Cb calv|Ac As]
+6 +5.7 98 +4  1016.3  0.3  755  297           
15 04.10.13 070 (В) 8-12{12}  4000 м  слаб. ливневой дождь  10/8 120 м кучево-дожд., средняя 
[Cb calv|Ac und]
+5 +4.9 99 +2  1017.4  756  298    +6.7     
18 04.10.13 070 (В) 7-11{12}  4000 м  слаб. ливневой дождь  10/9 150 м кучево-дожд., средняя 
[Cb calv|As op]
+4.4 +4.1 98 +1  1018.5  757  300           
21 04.10.13 070 (В) 7-10{11}  4000 м  слаб. дождь{ливн. осадки}  10/10 150 м 
[Frnb|Ns]
+3.4 +3 97 1018.5  757  301           
00 05.10.13 050 (СВ) 6{11}  4000 м  слаб. дождь{ливн. осадки}  10/10 240 м 
[Sc]
+3.1 +2.6 96 1018.5  757  301           
Время (UTC), дата Ветер
(°,м/с) 
Видим.   Явления Облачность Т
(°С)
Тd
(°С)
f(%) Тe
(°С)
Pmin
(гПа)
dP
(гПа)
Po
(мм)
O2
(г/м3)
Тmin Tmax R s Состояние
почвы